N0KWA Weather Reports


time (UTC)temp
C
wind
direction
speed
KPH
gust
KPH
rain 1hr
cm
rain 24hr
cm
rain mn
cm
humidity
%
barometer
mb
20260510142855 20 54 0.0 0.0 0.00 0.00 0.00 99 1018.8
20260510142351 20 51 0.0 0.0 0.00 0.00 0.00 99 1019.0
20260510141848 20 33 0.0 0.0 0.00 0.00 0.00 99 1019.1
20260510141345 20 31 0.0 0.0 0.00 0.00 0.00 99 1019.1
20260510140842 20 33 0.0 0.0 0.00 0.00 0.00 99 1019.0
20260510140338 20 33 0.0 0.0 0.00 0.00 0.00 99 1018.9
20260510135831 19 33 0.0 0.0 0.00 0.00 0.00 99 1018.8
20260510135327 19 33 0.0 0.0 0.00 0.00 0.00 99 1018.8
20260510134825 19 33 0.0 0.0 0.00 0.00 0.00 99 1018.9
20260510134322 19 33 0.0 0.0 0.00 0.00 0.00 99 1018.8
20260510133818 19 33 0.0 0.0 0.00 0.00 0.00 99 1019.0
20260510133314 19 33 0.0 0.0 0.00 0.00 0.00 99 1019.1
20260510132810 19 33 0.0 0.0 0.00 0.00 0.00 99 1019.0
20260510132308 18 32 0.0 0.0 0.00 0.00 0.00 99 1018.9
20260510131804 18 33 0.0 0.0 0.00 0.00 0.00 99 1018.8
20260510131302 18 32 0.0 0.0 0.00 0.00 0.00 99 1018.5
20260510130759 18 33 0.0 0.0 0.00 0.00 0.00 99 1018.5
20260510130256 18 33 0.0 0.0 0.00 0.00 0.00 99 1018.4
20260510125752 18 32 0.0 0.0 0.00 0.00 0.00 99 1018.3
20260510125248 18 33 0.0 0.0 0.00 0.00 0.00 99 1018.4
20260510124745 18 33 0.0 0.0 0.00 0.00 0.00 99 1018.3
20260510124242 18 32 0.0 0.0 0.00 0.00 0.00 99 1018.3
20260510123737 18 32 0.0 0.0 0.00 0.00 0.00 99 1018.1
20260510123234 18 33 0.0 0.0 0.00 0.00 0.00 99 1018.0
20260510122730 18 32 0.0 0.0 0.00 0.00 0.00 99 1017.9
20260510122227 18 32 0.0 0.0 0.00 0.00 0.00 99 1017.9
20260510121723 18 32 0.0 0.0 0.00 0.00 0.00 99 1017.8
20260510121221 18 32 0.0 0.0 0.00 0.00 0.00 99 1017.7
20260510120718 18 32 0.0 0.0 0.00 0.00 0.00 99 1017.8
20260510120214 18 32 0.0 0.0 0.00 0.00 0.00 99 1017.8
20260510115710 18 32 0.0 0.0 0.00 0.00 0.00 99 1017.5
20260510115208 18 32 0.0 0.0 0.00 0.00 0.00 99 1017.3
20260510114703 18 32 0.0 0.0 0.00 0.00 0.00 99 1017.4
20260510114200 18 32 0.0 0.0 0.00 0.00 0.00 99 1017.4
20260510113655 18 32 0.0 0.0 0.00 0.00 0.00 99 1017.4
20260510113152 18 32 0.0 0.0 0.00 0.00 0.00 99 1017.0
20260510112643 18 32 0.0 0.0 0.00 0.00 0.00 99 1016.8
20260510112140 18 32 0.0 0.0 0.00 0.00 0.00 99 1016.6
20260510111636 18 32 0.0 0.0 0.00 0.00 0.00 99 1016.6
20260510111132 18 32 0.0 0.0 0.00 0.00 0.00 99 1016.5
20260510110628 18 32 0.0 0.0 0.00 0.00 0.00 99 1016.3
20260510110125 18 32 0.0 0.0 0.00 0.00 0.00 99 1016.2
20260510105621 18 32 0.0 0.0 0.00 0.00 0.00 99 1016.2
20260510105115 18 32 0.0 0.0 0.00 0.00 0.00 99 1016.0
20260510104613 18 32 0.0 0.0 0.00 0.00 0.00 99 1016.0
20260510104109 18 32 0.0 0.0 0.00 0.00 0.00 99 1016.0
20260510103606 18 32 0.0 0.0 0.00 0.00 0.00 99 1015.7
20260510103102 18 32 0.0 0.0 0.00 0.00 0.00 99 1015.6
20260510102557 18 32 0.0 0.0 0.00 0.00 0.00 99 1015.6
20260510102054 18 32 0.0 0.0 0.00 0.00 0.00 99 1015.6
20260510101552 18 32 0.0 0.0 0.00 0.00 0.00 99 1015.6
20260510101050 18 32 0.0 0.0 0.00 0.00 0.00 99 1015.6
20260510100545 18 32 0.0 0.0 0.00 0.00 0.00 99 1015.5
20260510100043 18 32 0.0 0.0 0.00 0.00 0.00 99 1015.3
20260510095539 18 32 0.0 0.0 0.00 0.00 0.00 99 1015.4
20260510095038 18 32 0.0 0.0 0.00 0.00 0.00 99 1015.3
20260510094533 18 32 0.0 0.0 0.00 0.00 0.00 99 1015.1
20260510094029 18 32 0.0 0.0 0.00 0.00 0.00 99 1015.3
20260510093525 18 32 0.0 0.0 0.00 0.00 0.00 99 1015.4
20260510093022 18 32 0.0 0.0 0.00 0.00 0.00 99 1015.2
20260510092519 18 32 0.0 0.0 0.00 0.00 0.00 99 1015.4
20260510092018 18 32 0.0 0.0 0.00 0.00 0.00 99 1015.5
20260510091515 18 32 0.0 0.0 0.00 0.00 0.00 99 1015.4
20260510091011 18 32 0.0 0.0 0.00 0.00 0.00 99 1015.7
20260510090509 18 32 0.0 0.0 0.00 0.00 0.00 99 1015.7
20260510090004 18 32 0.0 0.0 0.00 0.00 0.00 99 1015.4
20260510085459 18 32 0.0 0.0 0.00 0.00 0.00 99 1015.6
20260510084955 18 32 0.0 0.0 0.00 0.00 0.00 99 1015.5
20260510084452 18 32 0.0 0.0 0.00 0.00 0.00 99 1015.6
20260510083949 18 32 0.0 0.0 0.00 0.00 0.00 99 1015.5
20260510083445 18 32 0.0 0.0 0.00 0.00 0.00 99 1015.3
20260510082941 18 31 0.0 0.0 0.00 0.00 0.00 99 1015.3
20260510082439 18 31 0.0 0.0 0.00 0.00 0.00 99 1015.4
20260510081938 18 32 0.0 0.0 0.00 0.00 0.00 99 1015.3
20260510081434 18 32 0.0 0.0 0.00 0.00 0.00 99 1015.1
20260510080930 18 32 0.0 0.0 0.00 0.00 0.00 99 1014.9
20260510080429 18 32 0.0 0.0 0.00 0.00 0.00 99 1014.9
20260510075926 18 32 0.0 0.0 0.00 0.00 0.00 99 1015.0
20260510075424 18 32 0.0 0.0 0.00 0.00 0.00 99 1015.1
20260510074921 18 32 0.0 0.0 0.00 0.00 0.00 99 1015.0
20260510074418 18 32 0.0 0.0 0.00 0.00 0.00 99 1015.1
20260510073914 18 32 0.0 0.0 0.00 0.00 0.00 99 1015.0
20260510073409 18 32 0.0 0.0 0.00 0.00 0.00 99 1014.8
20260510072906 18 32 0.0 0.0 0.00 0.00 0.00 99 1014.8
20260510072403 18 32 0.0 0.0 0.00 0.00 0.00 99 1014.7
20260510071858 18 32 0.0 0.0 0.00 0.00 0.00 99 1014.7
20260510071355 18 32 0.0 0.0 0.00 0.00 0.00 99 1014.8
20260510070854 18 32 0.0 0.0 0.00 0.00 0.00 99 1014.8
20260510070351 18 32 0.0 0.0 0.00 0.00 0.00 99 1015.1
20260510065850 18 32 0.0 0.0 0.00 0.00 0.00 99 1014.9
20260510065348 18 32 0.0 0.0 0.00 0.00 0.00 99 1014.9
20260510064844 18 32 0.0 0.0 0.00 0.00 0.00 99 1015.1
20260510064342 19 32 0.0 0.0 0.00 0.00 0.00 99 1014.9
20260510063838 19 32 0.0 0.0 0.00 0.00 0.00 99 1015.1
20260510063335 19 31 0.0 0.0 0.00 0.00 0.00 99 1015.0
20260510062832 19 31 0.0 0.0 0.00 0.00 0.00 99 1015.1
20260510062327 19 31 0.0 0.0 0.00 0.00 0.00 99 1015.2
20260510061822 19 31 0.0 0.0 0.00 0.00 0.00 99 1015.1
20260510061320 19 32 0.0 0.0 0.00 0.00 0.00 99 1015.2
20260510060815 19 32 0.0 0.0 0.00 0.00 0.00 99 1015.2
20260510060307 19 31 0.0 0.0 0.00 0.00 0.00 99 1015.3
20260510055804 19 32 0.0 0.0 0.00 0.00 0.00 99 1015.3
20260510055306 19 32 0.0 0.0 0.00 0.00 0.00 99 1015.3
20260510054802 19 32 0.0 0.0 0.00 0.00 0.00 99 1015.2
20260510054258 19 32 0.0 0.0 0.00 0.00 0.00 99 1015.2
20260510053757 19 32 0.0 0.0 0.00 0.00 0.00 99 1015.2
20260510053248 19 32 0.0 0.0 0.00 0.00 0.00 99 1015.2
20260510052744 19 32 0.0 0.0 0.00 0.00 0.00 99 1015.2
20260510052240 19 32 0.0 0.0 0.00 0.00 0.00 99 1015.4
20260510051736 19 32 0.0 0.0 0.00 0.00 0.00 99 1015.4
20260510051233 19 32 0.0 0.0 0.00 0.00 0.00 99 1015.2
20260510050730 19 32 0.0 0.0 0.00 0.00 0.00 99 1015.3
20260510050227 19 32 0.0 0.0 0.00 0.00 0.00 99 1015.4
20260510045724 19 31 0.0 0.0 0.00 0.00 0.00 99 1015.3
20260510045221 19 32 0.0 0.0 0.00 0.00 0.00 99 1015.3
20260510044717 19 32 0.0 0.0 0.00 0.00 0.00 99 1015.2
20260510044215 19 32 0.0 0.0 0.00 0.00 0.00 99 1015.3
20260510043710 19 32 0.0 0.0 0.00 0.00 0.00 99 1015.2
20260510043207 19 31 0.0 0.0 0.00 0.00 0.00 99 1015.1
20260510042704 19 30 0.0 0.0 0.00 0.00 0.00 99 1015.4
20260510042200 19 30 0.0 0.0 0.00 0.00 0.00 99 1015.0
20260510041657 19 30 0.0 0.0 0.00 0.00 0.00 99 1014.8
20260510041155 19 32 0.0 0.0 0.00 0.00 0.00 99 1014.4
20260510040651 19 32 0.0 0.0 0.00 0.00 0.00 99 1014.5
20260510040148 19 32 0.0 0.0 0.00 0.00 0.00 99 1014.8
20260510035644 19 32 0.0 0.0 0.00 0.00 0.00 99 1014.8
20260510035139 19 32 0.0 0.0 0.00 0.00 0.00 99 1015.2
20260510034636 19 31 0.0 0.0 0.00 0.00 0.00 99 1015.4
20260510034133 19 31 0.0 0.0 0.00 0.00 0.00 99 1015.6
20260510033629 19 32 0.0 0.0 0.00 0.00 0.00 99 1015.6
20260510033128 19 31 0.0 0.0 0.00 0.00 0.00 99 1015.7
20260510032624 19 33 0.0 0.0 0.00 0.00 0.00 99 1015.5
20260510032119 19 32 0.0 0.0 0.00 0.00 0.00 99 1015.9
20260510031614 19 32 0.0 0.0 0.00 0.00 0.00 99 1016.2
20260510031111 19 32 0.0 0.0 0.00 0.00 0.00 99 1016.0
20260510030606 19 32 0.0 0.0 0.00 0.00 0.00 99 1015.9
20260510030104 19 32 0.0 0.0 0.00 0.00 0.00 99 1015.6
20260510025600 19 32 0.0 0.0 0.00 0.00 0.00 99 1015.6
20260510025058 19 32 0.0 0.0 0.00 0.00 0.00 99 1015.5
20260510024554 19 32 0.0 0.0 0.00 0.00 0.00 99 1015.3
20260510024050 19 32 0.0 0.0 0.00 0.00 0.00 99 1015.2
20260510023541 19 32 0.0 0.0 0.00 0.00 0.00 99 1015.2
20260510023038 19 32 0.0 0.0 0.00 0.00 0.00 99 1015.3
20260510022537 19 32 0.0 0.0 0.00 0.00 0.00 99 1015.3
20260510022032 19 32 0.0 0.0 0.00 0.00 0.00 99 1015.2
20260510021529 19 32 0.0 0.0 0.00 0.00 0.00 99 1015.1
20260510021027 19 32 0.0 0.0 0.00 0.00 0.00 99 1015.3
20260510020521 19 24 0.0 0.0 0.00 0.00 0.00 99 1015.4
20260510020017 19 23 0.0 0.0 0.00 0.00 0.00 99 1015.4
20260510015512 19 31 0.0 0.0 0.00 0.00 0.00 99 1015.0
20260510015009 19 31 0.0 0.0 0.00 0.00 0.00 99 1014.7
20260510014505 19 32 0.0 0.0 0.00 0.00 0.00 99 1014.8
20260510014003 19 9 0.0 0.0 0.00 0.00 0.00 99 1015.0
20260510013456 19 56 0.0 0.0 0.00 0.00 0.00 99 1014.6
20260510012953 19 9 1.6 1.6 0.00 0.00 0.00 99 1014.9
20260510012447 19 6 1.6 1.6 0.00 0.00 0.00 99 1014.1
20260510011943 19 57 0.0 0.0 0.00 0.00 0.00 99 1013.8
20260510011437 19 55 0.0 0.0 0.00 0.00 0.00 99 1014.0
20260510010933 19 53 0.0 0.0 0.00 0.00 0.00 99 1014.1
20260510010426 19 54 0.0 0.0 0.00 0.00 0.00 99 1013.8
20260510005922 19 55 0.0 0.0 0.00 0.00 0.00 99 1014.1
20260510005418 19 19 0.0 0.0 0.00 0.00 0.00 99 1014.4
20260510004916 19 17 0.0 0.0 0.00 0.00 0.00 99 1014.6
20260510004413 19 30 0.0 0.0 0.00 0.00 0.00 99 1014.6
20260510003911 19 54 0.0 0.0 0.00 0.00 0.00 99 1014.0
20260510003408 19 54 0.0 0.0 0.00 0.00 0.00 99 1013.9
20260510002907 19 57 0.0 1.6 0.00 0.00 0.00 99 1013.9
20260510002404 19 54 0.0 0.0 0.00 0.00 0.00 99 1013.7
20260510001901 19 54 0.0 0.0 0.00 0.00 0.00 99 1014.5
20260510001358 19 52 0.0 0.0 0.00 0.00 0.00 99 1014.6
20260510000855 19 52 0.0 0.0 0.00 0.00 0.00 99 1014.6
20260510000352 19 52 0.0 0.0 0.00 0.00 0.00 99 1014.3
20260509235848 19 52 0.0 0.0 0.00 0.00 0.00 99 1014.3
20260509235345 19 53 0.0 0.0 0.00 0.00 0.00 99 1014.4
20260509234841 19 52 0.0 0.0 0.00 0.00 0.00 99 1014.6
20260509234338 20 56 0.0 0.0 0.00 0.00 0.00 99 1014.5
20260509233836 19 51 0.0 0.0 0.00 0.00 0.00 99 1014.7
20260509233334 20 49 0.0 0.0 0.00 0.00 0.00 99 1015.0
20260509232829 20 51 0.0 0.0 0.00 0.00 0.00 99 1014.6
20260509232327 20 51 0.0 0.0 0.00 0.00 0.00 99 1014.5
20260509231823 19 51 0.0 0.0 0.00 0.00 0.00 99 1014.5
20260509231320 19 51 0.0 0.0 0.00 0.00 0.00 99 1014.5
20260509230818 19 55 0.0 0.0 0.00 0.00 0.00 99 1014.7
20260509230315 19 49 0.0 0.0 0.00 0.00 0.00 99 1014.5
20260509225809 19 49 0.0 0.0 0.00 0.00 0.00 99 1014.2
20260509225307 19 48 0.0 0.0 0.00 0.00 0.00 99 1014.3
20260509224803 19 48 0.0 0.0 0.00 0.00 0.00 99 1013.9
20260509224259 19 41 0.0 0.0 0.00 0.00 0.00 99 1013.7
20260509223756 19 41 0.0 0.0 0.00 0.00 0.00 99 1013.6
20260509223253 20 48 0.0 0.0 0.00 0.00 0.00 99 1013.9
20260509222749 19 51 0.0 0.0 0.00 0.00 0.00 99 1013.8
20260509222245 19 50 0.0 0.0 0.00 0.00 0.00 99 1014.0
20260509221740 19 48 0.0 0.0 0.00 0.00 0.00 99 1014.4
20260509221237 19 48 0.0 0.0 0.00 0.00 0.00 99 1014.2
20260509220733 19 47 0.0 0.0 0.00 0.00 0.00 99 1014.4
20260509220230 19 43 0.0 0.0 0.00 0.00 0.00 99 1014.0
20260509215725 19 43 0.0 0.0 0.00 0.00 0.00 99 1013.8
20260509215221 19 44 0.0 0.0 0.00 0.00 0.00 99 1013.8
20260509214719 19 41 0.0 0.0 0.00 0.00 0.00 99 1013.7
20260509214216 19 41 0.0 0.0 0.00 0.00 0.00 99 1013.8
20260509213713 19 44 0.0 0.0 0.00 0.00 0.00 99 1013.7
20260509213208 19 40 0.0 0.0 0.00 0.00 0.00 99 1013.6
20260509212701 19 42 0.0 0.0 0.00 0.00 0.00 99 1013.1
20260509212157 19 43 0.0 0.0 0.00 0.00 0.00 99 1013.3
20260509211653 19 54 0.0 0.0 0.00 0.00 0.00 99 1012.8
20260509211150 19 54 0.0 0.0 0.00 0.00 0.00 99 1012.6
20260509210646 19 48 0.0 0.0 0.00 0.00 0.00 99 1013.0
20260509210138 19 54 0.0 0.0 0.00 0.00 0.00 99 1012.9
20260509205633 19 34 0.0 0.0 0.00 0.00 0.00 99 1013.2
20260509205127 19 30 0.0 0.0 0.00 0.00 0.00 99 1013.6
20260509204624 19 30 1.6 1.6 0.00 0.00 0.00 99 1013.4
20260509204120 19 31 0.0 0.0 0.00 0.00 0.00 99 1012.6
20260509203616 19 52 0.0 0.0 0.00 0.00 0.00 99 1012.4
20260509203115 19 54 0.0 0.0 0.00 0.00 0.00 99 1012.5
20260509202614 18 56 0.0 0.0 0.00 0.00 0.00 99 1013.0
20260509202105 18 55 0.0 0.0 0.00 0.00 0.00 99 1013.8
20260509201605 18 54 0.0 0.0 0.00 0.00 0.00 99 1014.3
20260509201103 18 43 0.0 0.0 0.00 0.00 0.00 99 1014.6
20260509200602 18 33 0.0 0.0 0.00 0.00 0.00 99 1014.7
20260509200053 18 33 0.0 0.0 0.00 0.00 0.00 99 1014.6
20260509195549 18 48 0.0 0.0 0.00 0.00 0.00 99 1014.5
20260509195044 18 48 0.0 0.0 0.00 0.00 0.00 99 1014.5
20260509194538 18 47 0.0 0.0 0.00 0.00 0.00 99 1014.5
20260509194036 18 42 0.0 0.0 0.00 0.00 0.00 99 1014.3
20260509193531 18 51 0.0 0.0 0.00 0.00 0.00 99 1013.9
20260509193028 18 11 0.0 0.0 0.00 0.00 0.00 99 1014.6
20260509192524 18 11 0.0 0.0 0.00 0.00 0.00 99 1015.0
20260509192019 18 18 0.0 0.0 0.00 0.00 0.00 99 1015.0
20260509191514 18 27 0.0 0.0 0.00 0.00 0.00 99 1014.5
20260509191010 18 21 0.0 0.0 0.00 0.00 0.00 99 1014.7
20260509190507 18 21 0.0 0.0 0.00 0.00 0.00 99 1014.3
20260509190006 18 27 0.0 0.0 0.00 0.00 0.00 99 1014.2
20260509185503 18 28 0.0 0.0 0.00 0.00 0.00 99 1014.4
20260509184958 18 21 0.0 0.0 0.00 0.00 0.00 99 1014.6
20260509184457 18 28 0.0 0.0 0.00 0.00 0.00 99 1014.3
20260509183952 18 22 0.0 0.0 0.00 0.00 0.00 99 1014.7
20260509183447 18 27 0.0 0.0 0.00 0.00 0.00 99 1014.6
20260509182944 18 27 0.0 0.0 0.00 0.00 0.00 99 1014.6
20260509182440 18 26 0.0 0.0 0.00 0.00 0.00 99 1014.6
20260509181937 18 29 0.0 0.0 0.00 0.00 0.00 99 1014.4
20260509181435 18 27 0.0 0.0 0.00 0.00 0.00 99 1014.3
20260509180933 18 43 0.0 0.0 0.00 0.00 0.00 99 1014.4
20260509180428 18 53 0.0 0.0 0.00 0.00 0.00 99 1014.4
20260509175925 18 57 0.0 0.0 0.00 0.00 0.00 99 1014.3
20260509175422 18 52 0.0 0.0 0.00 0.00 0.00 99 1014.4
20260509174918 18 52 0.0 0.0 0.00 0.00 0.00 99 1014.4
20260509174414 18 51 0.0 0.0 0.00 0.00 0.00 99 1014.6
20260509173909 18 47 0.0 0.0 0.00 0.00 0.00 99 1014.8
20260509173403 18 53 0.0 0.0 0.00 0.00 0.00 99 1014.8
20260509172900 18 53 0.0 0.0 0.00 0.00 0.00 99 1014.5
20260509172357 18 53 0.0 0.0 0.00 0.00 0.00 99 1014.7
20260509171847 18 51 0.0 0.0 0.00 0.00 0.00 99 1014.9
20260509171343 18 51 0.0 0.0 0.00 0.00 0.00 99 1014.7
20260509170840 18 54 0.0 0.0 0.00 0.00 0.00 99 1014.7
20260509170336 17 51 0.0 0.0 0.00 0.00 0.00 99 1014.8
20260509165830 17 55 0.0 0.0 0.00 0.00 0.00 99 1014.5
20260509165325 17 29 0.0 0.0 0.00 0.00 0.00 99 1014.6
20260509164821 17 23 0.0 0.0 0.00 0.00 0.00 99 1014.7
20260509164318 17 50 0.0 0.0 0.00 0.00 0.00 99 1014.6
20260509163814 17 53 0.0 0.0 0.00 0.00 0.00 99 1014.3
20260509163310 17 52 0.0 0.0 0.00 0.00 0.00 99 1014.7
20260509162810 17 340 0.0 0.0 0.00 0.00 0.00 99 1015.3
20260509162306 17 37 0.0 0.0 0.00 0.00 0.00 99 1015.0
20260509161759 17 56 0.0 0.0 0.00 0.00 0.00 99 1014.2
20260509161255 17 52 0.0 0.0 0.00 0.00 0.00 99 1015.1
20260509160751 17 51 0.0 0.0 0.00 0.00 0.00 99 1015.6
20260509160247 17 51 0.0 0.0 0.00 0.00 0.00 99 1015.7
20260509155743 17 50 0.0 0.0 0.00 0.00 0.00 99 1015.9
20260509155240 17 46 0.0 0.0 0.00 0.00 0.00 99 1015.6
20260509154735 17 51 0.0 0.0 0.00 0.00 0.00 99 1016.0
20260509154233 17 52 0.0 0.0 0.00 0.00 0.00 99 1016.0
20260509153730 17 49 0.0 0.0 0.00 0.00 0.00 99 1015.8
20260509153226 17 47 0.0 0.0 0.00 0.00 0.00 99 1015.5
20260509152722 17 49 0.0 0.0 0.00 0.00 0.00 99 1014.9
20260509152219 17 51 0.0 0.0 0.00 0.00 0.00 99 1015.4
20260509151716 17 50 0.0 0.0 0.00 0.00 0.00 99 1015.4
20260509151213 17 52 0.0 0.0 0.00 0.00 0.00 99 1015.3
20260509150710 17 50 0.0 0.0 0.00 0.00 0.00 99 1015.2
20260509150209 17 51 0.0 0.0 0.00 0.00 0.00 99 1015.0
20260509145704 17 50 0.0 0.0 0.00 0.00 0.00 99 1015.2
20260509145200 17 47 0.0 0.0 0.00 0.00 0.00 99 1015.4
20260509144656 17 52 0.0 1.6 0.00 0.00 0.00 99 1015.6
20260509144154 17 46 0.0 0.0 0.00 0.00 0.00 99 1015.1
20260509143651 17 47 0.0 0.0 0.00 0.00 0.00 99 1014.9
20260509143149 17 46 0.0 0.0 0.00 0.00 0.00 99 1015.0